Location: El Álamo
(40.2307°N, 3.9945°W)
Time: 03:23:41
(UTC+00:00)

Cosmos 1833 Rocket - Pass Details

Date: 19 May 2025
Orbit: 832 x 838 km, 71.0° (Epoch: 23 June)

Event Time Altitude Azimuth Distance (km) Brightness Sun altitude
Rises 20:19:04 0° 177° (S) 3,371 5.5 -9.0°
Reaches altitude 10° 20:21:40 10° 169° (SSE) 2,442 4.7 -9.4°
Maximum altitude 20:26:42 35° 104° (ESE) 1,318 3.3 -10.1°
Drops below altitude 10° 20:31:46 10° 41° (NE) 2,458 5.1 -10.9°
Sets 20:34:23 0° 32° (NNE) 3,397 5.9 -11.3°
